EN

Hourly Weather Otyniya

Today, 27 February, Saturday

Time Temperature Precipitation Wind Pressure Humidity
00:00 +5°C° 0 mm 3 mps 740 mmHg 91%
01:00 +5°C° 0 mm 3 mps 741 mmHg 96%
02:00 +4°C° 0 mm 2 mps 741 mmHg 100%
03:00 +3°C° 0 mm 3 mps 742 mmHg 100%
04:00 +1°C° 0.4 mm 4 mps 742 mmHg 100%
05:00 0°C° 0.9 mm 4 mps 742 mmHg 100%
06:00 0°C° 0.5 mm 4 mps 742 mmHg 100%
07:00 -1°C° 0.8 mm 4 mps 742 mmHg 100%
08:00 -1°C° 0.9 mm 4 mps 742 mmHg 100%
09:00 -1°C° 0.4 mm 4 mps 742 mmHg 100%
10:00 0°C° 0 mm 5 mps 743 mmHg 100%
11:00 0°C° 0 mm 5 mps 743 mmHg 99%
12:00 0°C° 0 mm 5 mps 743 mmHg 100%
13:00 0°C° 0 mm 5 mps 743 mmHg 100%
14:00 +1°C° 0 mm 6 mps 743 mmHg 96%
15:00 0°C° 0 mm 7 mps 743 mmHg 99%
16:00 0°C° 0 mm 7 mps 743 mmHg 99%
17:00 -1°C° 0 mm 7 mps 743 mmHg 99%
18:00 -1°C° 0 mm 6 mps 743 mmHg 100%
19:00 -1°C° 0 mm 6 mps 743 mmHg 100%
20:00 -2°C° 0 mm 6 mps 744 mmHg 100%
21:00 -2°C° 0 mm 7 mps 744 mmHg 100%
22:00 -3°C° 0 mm 7 mps 745 mmHg 100%
23:00 -3°C° 0 mm 6 mps 745 mmHg 100%

Tomorrow, 28 February, Sunday

Time Temperature Precipitation Wind Pressure Humidity
00:00 -3°C° 0 mm 6 mps 745 mmHg 100%
01:00 -2°C° 0.1 mm 5 mps 745 mmHg 100%
02:00 -2°C° 0.2 mm 5 mps 746 mmHg 100%
03:00 -2°C° 0.2 mm 5 mps 746 mmHg 100%
04:00 -2°C° 0 mm 5 mps 746 mmHg 98%
05:00 -3°C° 0 mm 6 mps 746 mmHg 98%
06:00 -4°C° 0 mm 6 mps 746 mmHg 100%
07:00 -4°C° 0 mm 6 mps 746 mmHg 98%
08:00 -4°C° 0 mm 6 mps 746 mmHg 97%
09:00 -4°C° 0 mm 7 mps 746 mmHg 96%
10:00 -3°C° 0 mm 6 mps 747 mmHg 95%
11:00 -3°C° 0 mm 6 mps 747 mmHg 96%
12:00 -2°C° 0 mm 6 mps 746 mmHg 96%
13:00 -2°C° 0 mm 6 mps 747 mmHg 96%
14:00 -1°C° 0 mm 6 mps 746 mmHg 95%
15:00 -1°C° 0 mm 6 mps 746 mmHg 95%
16:00 -1°C° 0 mm 6 mps 746 mmHg 96%
17:00 -1°C° 0 mm 5 mps 746 mmHg 95%
18:00 -1°C° 0 mm 5 mps 745 mmHg 96%
19:00 -1°C° 0 mm 4 mps 745 mmHg 97%
20:00 -1°C° 0 mm 3 mps 745 mmHg 98%
21:00 0°C° 0 mm 3 mps 745 mmHg 97%
22:00 -1°C° 0 mm 4 mps 745 mmHg 93%
23:00 -3°C° 0 mm 6 mps 745 mmHg 94%

Day after tomorrow, 1 March, Monday

Time Temperature Precipitation Wind Pressure Humidity
00:00 -3°C° 0.1 mm 6 mps 745 mmHg 100%
01:00 -4°C° 0.7 mm 5 mps 745 mmHg 100%
02:00 -4°C° 0.8 mm 5 mps 745 mmHg 100%
03:00 -3°C° 0.2 mm 6 mps 746 mmHg 100%
04:00 -4°C° 0.1 mm 5 mps 745 mmHg 100%
05:00 -4°C° 0.1 mm 5 mps 746 mmHg 100%
06:00 -3°C° 0.2 mm 4 mps 746 mmHg 100%
07:00 -3°C° 0.1 mm 4 mps 746 mmHg 100%
08:00 -2°C° 0.1 mm 4 mps 747 mmHg 100%
09:00 -2°C° 0.1 mm 4 mps 747 mmHg 100%
10:00 -2°C° 0.1 mm 4 mps 748 mmHg 99%
11:00 -2°C° 0 mm 4 mps 748 mmHg 97%
12:00 -1°C° 0 mm 4 mps 748 mmHg 97%
13:00 -1°C° 0 mm 4 mps 749 mmHg 97%
14:00 0°C° 0.1 mm 4 mps 749 mmHg 98%
15:00 0°C° 0.2 mm 4 mps 749 mmHg 100%
16:00 0°C° 0.1 mm 4 mps 749 mmHg 98%
17:00 0°C° 0 mm 4 mps 749 mmHg 100%
18:00 0°C° 0.1 mm 5 mps 749 mmHg 100%
19:00 0°C° 0 mm 3 mps 749 mmHg 100%
20:00 0°C° 0 mm 3 mps 749 mmHg 100%
21:00 0°C° 0 mm 3 mps 749 mmHg 100%
22:00 -1°C° 0 mm 4 mps 749 mmHg 99%
23:00 -1°C° 0 mm 4 mps 749 mmHg 98%

2 March, Tuesday

Time Temperature Precipitation Wind Pressure Humidity
00:00 -1°C° 0 mm 4 mps 749 mmHg 100%
01:00 -1°C° 0 mm 4 mps 749 mmHg 100%
02:00 0°C° 0 mm 3 mps 749 mmHg 100%
03:00 0°C° 0 mm 3 mps 749 mmHg 100%
04:00 -1°C° 0 mm 4 mps 749 mmHg 100%
05:00 -2°C° 0 mm 4 mps 749 mmHg 100%
06:00 -2°C° 0 mm 4 mps 748 mmHg 100%
07:00 -1°C° 0 mm 3 mps 748 mmHg 100%
08:00 -1°C° 0 mm 3 mps 748 mmHg 100%
09:00 -1°C° 0 mm 3 mps 748 mmHg 100%
10:00 0°C° 0 mm 3 mps 748 mmHg 99%
11:00 +3°C° 0 mm 3 mps 748 mmHg 97%
12:00 +5°C° 0 mm 4 mps 748 mmHg 93%
13:00 +6°C° 0 mm 5 mps 748 mmHg 89%
14:00 +7°C° 0 mm 5 mps 748 mmHg 87%
15:00 +8°C° 0 mm 6 mps 748 mmHg 87%
16:00 +7°C° 0 mm 6 mps 747 mmHg 88%
17:00 +7°C° 0 mm 5 mps 747 mmHg 91%
18:00 +6°C° 0 mm 4 mps 747 mmHg 94%
19:00 +4°C° 0 mm 4 mps 747 mmHg 96%
20:00 +4°C° 0 mm 4 mps 747 mmHg 94%
21:00 +3°C° 0 mm 4 mps 747 mmHg 92%
22:00 +1°C° 0 mm 4 mps 747 mmHg 93%
23:00 +1°C° 0 mm 3 mps 747 mmHg 93%

3 March, Wednesday

Time Temperature Precipitation Wind Pressure Humidity
00:00 +1°C° 0 mm 3 mps 748 mmHg 91%
01:00 0°C° 0 mm 3 mps 747 mmHg 93%
02:00 +1°C° 0 mm 2 mps 747 mmHg 93%
03:00 +1°C° 0 mm 2 mps 747 mmHg 93%
04:00 -1°C° 0 mm 2 mps 747 mmHg 93%
05:00 -1°C° 0 mm 2 mps 747 mmHg 92%
06:00 -1°C° 0 mm 2 mps 747 mmHg 91%
07:00 +2°C° 0 mm 1 mps 747 mmHg 89%
08:00 +2°C° 0 mm 1 mps 747 mmHg 90%
09:00 +3°C° 0 mm 1 mps 747 mmHg 94%
10:00 +4°C° 0 mm 1 mps 747 mmHg 94%
11:00 +4°C° 0 mm 2 mps 747 mmHg 94%
12:00 +5°C° 0 mm 2 mps 747 mmHg 91%
13:00 +7°C° 0 mm 1 mps 747 mmHg 96%
14:00 +6°C° 0 mm 2 mps 747 mmHg 96%
15:00 +8°C° 0 mm 1 mps 747 mmHg 95%
16:00 +8°C° 0 mm 1 mps 746 mmHg 97%
17:00 +7°C° 0 mm 1 mps 746 mmHg 98%
18:00 +6°C° 0 mm 2 mps 746 mmHg 99%
19:00 +5°C° 0 mm 2 mps 746 mmHg 100%
20:00 +5°C° 0 mm 2 mps 745 mmHg 100%
21:00 +6°C° 0 mm 1 mps 745 mmHg 100%
22:00 +4°C° 0 mm 2 mps 745 mmHg 100%
23:00 +4°C° 0 mm 2 mps 745 mmHg 100%

4 March, Thursday

Time Temperature Precipitation Wind Pressure Humidity
00:00 +4°C° 0 mm 2 mps 745 mmHg 100%
01:00 +3°C° 0 mm 2 mps 744 mmHg 100%
02:00 +4°C° 0 mm 1 mps 744 mmHg 100%
03:00 +4°C° 0 mm 1 mps 744 mmHg 100%
04:00 +3°C° 0 mm 1 mps 743 mmHg 100%
05:00 +2°C° 0 mm 0 mps 743 mmHg 100%
06:00 +2°C° 0 mm 1 mps 742 mmHg 100%
07:00 +2°C° 0 mm 1 mps 742 mmHg 100%
08:00 +1°C° 0 mm 0 mps 742 mmHg 100%
09:00 +1°C° 0 mm 0 mps 741 mmHg 100%
10:00 +2°C° 0 mm 1 mps 741 mmHg 100%
11:00 +3°C° 0 mm 1 mps 741 mmHg 100%
12:00 +4°C° 0 mm 1 mps 740 mmHg 99%
13:00 +5°C° 0 mm 1 mps 740 mmHg 99%
14:00 +6°C° 0 mm 1 mps 739 mmHg 99%
15:00 +6°C° 0 mm 0 mps 739 mmHg 98%
16:00 +6°C° 0 mm 0 mps 739 mmHg 96%
17:00 +6°C° 0 mm 0 mps 738 mmHg 95%
18:00 +7°C° 0 mm 1 mps 738 mmHg 99%
19:00 +6°C° 0 mm 1 mps 738 mmHg 99%
20:00 +5°C° 0 mm 1 mps 738 mmHg 98%
21:00 +5°C° 0 mm 1 mps 737 mmHg 98%
22:00 +5°C° 0 mm 1 mps 737 mmHg 98%
23:00 +4°C° 0 mm 1 mps 737 mmHg 99%
Show more

We Need Your Consent

Meteoprog and our Service Providers may store and access personal data such as cookies, device identifiers or other similar technologies on your device and process such data to personalise content and ads, as well as provide social media features and to analyse the traffic.

  • Store and/or access information on your device

    Cookies, device identifiers or other information can be stored or accessed on your device for the purposes indicated above.

  • Personalised ads and content, ad and content measurement, audience insights, and products development

    Ads and content can be personalised based on a profile. More data can be added to better personalise ads and content. Ad and content performance can be measured. Insights about the audience who saw the ads and content can be derived. Such data can be used to develop or improve user’s experience, systems and software.

By clicking ‘I Agree’ you will allow the use of indicated cookies, device identifiers, web beacons or other similar technologies. Your settings can be changed in the browser on your device.

For certain purposes, legitimate interests may be relied on, rather than consent. You can read more about this in our Privacy and Cookie Policy.